Weather History for Montpelier, VT

Change the Weather History Date:

Saturday, May 12, 2012

  Actual Average Record
Temperature  
Mean Temperature 53 °F 53 °F  
Max Temperature 74 °F 65 °F 82 °F (2004)
Min Temperature 31 °F 41 °F 26 °F (1966)
Degree Days  
Heating Degree Days 12    
Cooling Degree Days 0 0  
Month to date cooling degree days 0 0  
Year to date cooling degree days 5 1  
Growing Degree Days 3 (Base 50)    
Moisture  
Dew Point 35 °F    
Average Humidity 57    
Maximum Humidity 89    
Minimum Humidity 24    
Precipitation  
Precipitation T in 0.11 in 3.90 in (1981)
Month to date precipitation 2.06 1.24  
Year to date precipitation 9.04 10.78  
Sea Level Pressure  
Sea Level Pressure 30.13 in    
Wind  
Wind Speed 5 mph (WNW)    
Max Wind Speed 20 mph    
Max Gust Speed 26 mph    
Visibility 10 miles    
Events      
T = Trace of Precipitation, MM = Missing Value Source: NWS Daily Summary

Daily Weather History Graph

Daily Weather History Graph

Search for Another Location

Airport:

Trip Planner

Search our weather history database for the weather conditions in past years. The results will help you decide how hot, cold, wet, or windy it might be!

Date:

Astronomy

May. 12, 2012 Rise Set
Actual Time 5:26 AM EDT 8:07 PM EDT
Civil Twilight 4:53 AM EDT 8:40 PM EDT
Nautical Twilight 4:11 AM EDT 9:22 PM EDT
Astronomical Twilight 3:23 AM EDT 10:11 PM EDT
Moon 1:15 AM EDT (5/12) 12:07 PM EDT (5/12)
Length of Visible Light 15h 47m
Length of Day
14h 41m
Waning Gibbous, 53% of the Moon is Illuminated
May 12
Waning Gibbous
May 12
Last Quarter
May 20
New
May 28
First Quarter
Jun 4
Full

Hourly Weather History & Observations

Time (EDT) Temp. Windchill Dew Point Humidity Pressure Visibility Wind Dir Wind Speed Gust Speed Precip Events Conditions
12:51 AM 37.9 °F 35.5 °F 30.9 °F 76% 30.09 in 10.0 mi SSW 3.5 mph - N/A   Clear
1:51 AM 37.9 °F - 30.9 °F 76% 30.09 in 10.0 mi Calm Calm - N/A   Clear
2:51 AM 35.1 °F - 30.0 °F 82% 30.10 in 10.0 mi Calm Calm - N/A   Clear
3:51 AM 35.1 °F - 30.9 °F 85% 30.10 in 10.0 mi Calm Calm - N/A   Clear
4:51 AM 33.1 °F - 30.0 °F 89% 30.12 in 10.0 mi Calm Calm - N/A   Clear
5:51 AM 33.8 °F - 28.4 °F 81% 30.10 in 10.0 mi Calm Calm - N/A   Clear
6:51 AM 37.9 °F - 33.1 °F 83% 30.15 in 10.0 mi Calm Calm - N/A   Clear
7:51 AM 46.0 °F - 39.0 °F 76% 30.16 in 10.0 mi Calm Calm - N/A   Clear
8:51 AM 55.9 °F - 32.0 °F 40% 30.16 in 10.0 mi Calm Calm - N/A   Clear
9:51 AM 59.0 °F - 32.0 °F 36% 30.16 in 10.0 mi WNW 4.6 mph - N/A   Clear
10:51 AM 64.0 °F - 30.9 °F 29% 30.15 in 10.0 mi North 9.2 mph - N/A   Clear
11:46 AM 66.2 °F - 28.4 °F 24% 30.14 in 10.0 mi North 12.7 mph 19.6 mph N/A   Partly Cloudy
11:51 AM 66.9 °F - 28.9 °F 24% 30.15 in 10.0 mi NNW 10.4 mph 17.3 mph N/A   Partly Cloudy
12:51 PM 69.1 °F - 32.0 °F 25% 30.12 in 10.0 mi WNW 12.7 mph 21.9 mph N/A   Clear
1:51 PM 71.1 °F - 34.0 °F 26% 30.12 in 10.0 mi West 13.8 mph 23.0 mph N/A   Clear
2:51 PM 73.0 °F - 37.0 °F 27% 30.10 in 10.0 mi NW 13.8 mph 23.0 mph N/A   Clear
3:51 PM 73.9 °F - 37.9 °F 27% 30.09 in 10.0 mi West 10.4 mph 18.4 mph N/A   Clear
4:51 PM 73.0 °F - 37.9 °F 28% 30.10 in 10.0 mi WNW 11.5 mph 23.0 mph N/A   Clear
5:51 PM 73.0 °F - 39.9 °F 30% 30.11 in 10.0 mi NW 10.4 mph 18.4 mph 0.00 in   Mostly Cloudy
6:51 PM 69.1 °F - 39.9 °F 35% 30.12 in 10.0 mi NW 3.5 mph - N/A   Clear
7:51 PM 66.9 °F - 41.0 °F 39% 30.13 in 10.0 mi Calm Calm - N/A   Clear
8:51 PM 59.0 °F - 45.0 °F 60% 30.15 in 10.0 mi Calm Calm - N/A   Mostly Cloudy
9:51 PM 60.1 °F - 46.0 °F 60% 30.16 in 10.0 mi South 3.5 mph - N/A   Overcast
10:51 PM 55.9 °F - 43.0 °F 62% 30.16 in 10.0 mi West 3.5 mph - N/A   Partly Cloudy
11:51 PM 53.1 °F - 43.0 °F 69% 30.15 in 10.0 mi South 4.6 mph - N/A   Clear